When you browse on this site, cookies collect data to enhance your experience and personalize the content and advertising you see.
Visit our Privacy Policy to learn more. By continuing to use the site, you agree to this use of cookies and data.
  • In Latvia
  • List of Countries
  • For 7 days
  • Water Temperature
  • Satellite Maps
  • Weather Map
  • Weather Widgets
  • user-avatar
    Login

    Hourly Weather Biskira

    Today, 20 July, Saturday

    Time Temperature Precipitation Wind Pressure Humidity
    00:00 +36°C° 0 mm 2 mps 752 mmHg 27%
    01:00 +35°C° 0 mm 4 mps 752 mmHg 28%
    02:00 +35°C° 0 mm 5 mps 752 mmHg 29%
    03:00 +34°C° 0 mm 6 mps 751 mmHg 30%
    04:00 +34°C° 0 mm 7 mps 752 mmHg 32%
    05:00 +33°C° 0 mm 7 mps 752 mmHg 34%
    06:00 +33°C° 0 mm 7 mps 753 mmHg 36%
    07:00 +34°C° 0 mm 7 mps 753 mmHg 33%
    08:00 +35°C° 0 mm 6 mps 753 mmHg 31%
    09:00 +36°C° 0 mm 6 mps 753 mmHg 29%
    10:00 +37°C° 0.1 mm 5 mps 753 mmHg 27%
    11:00 +38°C° 0.1 mm 4 mps 753 mmHg 25%
    12:00 +38°C° 0.1 mm 3 mps 753 mmHg 23%
    13:00 +39°C° 0 mm 2 mps 753 mmHg 23%
    14:00 +40°C° 0 mm 2 mps 752 mmHg 22%
    15:00 +40°C° 0 mm 1 mps 752 mmHg 21%
    16:00 +40°C° 0 mm 2 mps 752 mmHg 21%
    17:00 +40°C° 0 mm 2 mps 752 mmHg 21%
    18:00 +40°C° 0 mm 2 mps 751 mmHg 21%
    19:00 +40°C° 0 mm 2 mps 752 mmHg 22%
    20:00 +39°C° 0 mm 2 mps 752 mmHg 23%
    21:00 +38°C° 0 mm 2 mps 753 mmHg 24%
    22:00 +37°C° 0 mm 2 mps 753 mmHg 25%
    23:00 +36°C° 0 mm 2 mps 753 mmHg 26%

    Tomorrow, 21 July, Sunday

    Time Temperature Precipitation Wind Pressure Humidity
    00:00 +36°C° 0 mm 2 mps 753 mmHg 27%
    01:00 +35°C° 0 mm 2 mps 752 mmHg 29%
    02:00 +35°C° 0 mm 3 mps 752 mmHg 30%
    03:00 +34°C° 0 mm 4 mps 752 mmHg 32%
    04:00 +34°C° 0 mm 4 mps 752 mmHg 33%
    05:00 +33°C° 0 mm 4 mps 753 mmHg 35%
    06:00 +33°C° 0 mm 4 mps 753 mmHg 36%
    07:00 +35°C° 0 mm 5 mps 753 mmHg 33%
    08:00 +36°C° 0 mm 5 mps 753 mmHg 29%
    09:00 +39°C° 0 mm 5 mps 754 mmHg 25%
    10:00 +40°C° 0 mm 4 mps 753 mmHg 23%
    11:00 +41°C° 0 mm 4 mps 753 mmHg 21%
    12:00 +42°C° 0 mm 3 mps 753 mmHg 18%
    13:00 +42°C° 0 mm 2 mps 752 mmHg 17%
    14:00 +42°C° 0 mm 2 mps 752 mmHg 16%
    15:00 +43°C° 0 mm 1 mps 751 mmHg 15%
    16:00 +43°C° 0 mm 1 mps 751 mmHg 15%
    17:00 +43°C° 0 mm 1 mps 751 mmHg 15%
    18:00 +43°C° 0 mm 1 mps 751 mmHg 15%
    19:00 +42°C° 0 mm 2 mps 752 mmHg 16%
    20:00 +40°C° 0 mm 3 mps 752 mmHg 18%
    21:00 +39°C° 0 mm 3 mps 753 mmHg 19%
    22:00 +38°C° 0 mm 4 mps 753 mmHg 23%
    23:00 +37°C° 0 mm 5 mps 753 mmHg 26%

    Day after tomorrow, 22 July, Monday

    Time Temperature Precipitation Wind Pressure Humidity
    00:00 +36°C° 0 mm 6 mps 753 mmHg 30%
    01:00 +34°C° 0 mm 6 mps 753 mmHg 33%
    02:00 +33°C° 0 mm 5 mps 753 mmHg 37%
    03:00 +32°C° 0 mm 5 mps 753 mmHg 40%
    04:00 +32°C° 0 mm 5 mps 754 mmHg 40%
    05:00 +32°C° 0 mm 5 mps 754 mmHg 40%
    06:00 +30°C° 0 mm 4 mps 754 mmHg 41%
    07:00 +33°C° 0 mm 5 mps 755 mmHg 37%
    08:00 +34°C° 0 mm 5 mps 755 mmHg 34%
    09:00 +35°C° 0 mm 5 mps 755 mmHg 30%
    10:00 +36°C° 0 mm 5 mps 755 mmHg 28%
    11:00 +39°C° 0 mm 5 mps 754 mmHg 26%
    12:00 +40°C° 0 mm 5 mps 754 mmHg 24%
    13:00 +40°C° 0 mm 5 mps 754 mmHg 23%
    14:00 +41°C° 0 mm 4 mps 753 mmHg 23%
    15:00 +41°C° 0 mm 4 mps 753 mmHg 22%
    16:00 +40°C° 0 mm 3 mps 753 mmHg 22%
    17:00 +40°C° 0 mm 3 mps 752 mmHg 23%
    18:00 +40°C° 0 mm 3 mps 752 mmHg 23%
    19:00 +39°C° 0 mm 2 mps 753 mmHg 25%
    20:00 +38°C° 0 mm 2 mps 753 mmHg 26%
    21:00 +37°C° 0 mm 2 mps 754 mmHg 28%
    22:00 +36°C° 0 mm 3 mps 754 mmHg 27%
    23:00 +35°C° 0 mm 5 mps 753 mmHg 27%

    23 July, Tuesday

    Time Temperature Precipitation Wind Pressure Humidity
    00:00 +34°C° 0 mm 6 mps 753 mmHg 27%
    01:00 +33°C° 0 mm 5 mps 753 mmHg 28%
    02:00 +32°C° 0 mm 4 mps 753 mmHg 29%
    03:00 +30°C° 0 mm 3 mps 753 mmHg 30%
    04:00 +30°C° 0 mm 2 mps 753 mmHg 31%
    05:00 +30°C° 0 mm 2 mps 753 mmHg 31%
    06:00 +30°C° 0 mm 2 mps 753 mmHg 31%
    07:00 +31°C° 0 mm 2 mps 754 mmHg 29%
    08:00 +32°C° 0 mm 2 mps 754 mmHg 28%
    09:00 +34°C° 0 mm 2 mps 754 mmHg 26%
    10:00 +35°C° 0 mm 2 mps 753 mmHg 24%
    11:00 +36°C° 0 mm 2 mps 753 mmHg 23%
    12:00 +38°C° 0 mm 2 mps 752 mmHg 21%
    13:00 +38°C° 0 mm 2 mps 752 mmHg 20%
    14:00 +39°C° 0 mm 2 mps 752 mmHg 19%
    15:00 +40°C° 0 mm 2 mps 751 mmHg 18%
    16:00 +40°C° 0 mm 2 mps 751 mmHg 18%
    17:00 +40°C° 0 mm 3 mps 751 mmHg 18%
    18:00 +40°C° 0 mm 3 mps 751 mmHg 17%
    19:00 +39°C° 0 mm 3 mps 751 mmHg 19%
    20:00 +38°C° 0 mm 3 mps 751 mmHg 20%
    21:00 +37°C° 0 mm 3 mps 751 mmHg 21%
    22:00 +36°C° 0 mm 3 mps 751 mmHg 22%
    23:00 +35°C° 0 mm 2 mps 751 mmHg 22%

    24 July, Wednesday

    Time Temperature Precipitation Wind Pressure Humidity
    00:00 +35°C° 0 mm 2 mps 751 mmHg 23%
    01:00 +34°C° 0 mm 3 mps 751 mmHg 23%
    02:00 +33°C° 0 mm 4 mps 751 mmHg 23%
    03:00 +32°C° 0 mm 4 mps 751 mmHg 23%
    04:00 +32°C° 0 mm 4 mps 751 mmHg 24%
    05:00 +32°C° 0 mm 4 mps 752 mmHg 25%
    06:00 +31°C° 0 mm 3 mps 752 mmHg 26%
    07:00 +33°C° 0 mm 3 mps 752 mmHg 23%
    08:00 +35°C° 0 mm 4 mps 752 mmHg 21%
    09:00 +36°C° 0 mm 4 mps 752 mmHg 18%
    10:00 +37°C° 0 mm 4 mps 752 mmHg 17%
    11:00 +38°C° 0 mm 4 mps 752 mmHg 16%
    12:00 +40°C° 0 mm 4 mps 751 mmHg 15%
    13:00 +40°C° 0 mm 3 mps 751 mmHg 15%
    14:00 +42°C° 0 mm 3 mps 750 mmHg 15%
    15:00 +42°C° 0 mm 3 mps 750 mmHg 15%
    16:00 +41°C° 0 mm 2 mps 750 mmHg 15%
    17:00 +41°C° 0 mm 2 mps 749 mmHg 15%
    18:00 +41°C° 0 mm 2 mps 749 mmHg 15%
    19:00 +40°C° 0 mm 2 mps 750 mmHg 16%
    20:00 +38°C° 0 mm 2 mps 750 mmHg 17%
    21:00 +37°C° 0 mm 2 mps 750 mmHg 18%
    22:00 +36°C° 0 mm 2 mps 750 mmHg 18%
    23:00 +36°C° 0 mm 2 mps 750 mmHg 19%

    25 July, Thursday

    Time Temperature Precipitation Wind Pressure Humidity
    00:00 +35°C° 0 mm 2 mps 750 mmHg 19%
    01:00 +34°C° 0 mm 2 mps 750 mmHg 20%
    02:00 +34°C° 0 mm 2 mps 750 mmHg 20%
    03:00 +33°C° 0 mm 3 mps 750 mmHg 20%
    04:00 +33°C° 0 mm 3 mps 750 mmHg 22%
    05:00 +33°C° 0 mm 4 mps 751 mmHg 25%
    06:00 +33°C° 0 mm 4 mps 751 mmHg 27%
    07:00 +35°C° 0 mm 5 mps 751 mmHg 25%
    08:00 +36°C° 0 mm 5 mps 751 mmHg 23%
    09:00 +39°C° 0 mm 5 mps 752 mmHg 22%
    10:00 +40°C° 0 mm 5 mps 751 mmHg 20%
    11:00 +41°C° 0 mm 4 mps 751 mmHg 18%
    12:00 +42°C° 0 mm 4 mps 751 mmHg 16%
    13:00 +43°C° 0 mm 4 mps 750 mmHg 15%
    14:00 +43°C° 0 mm 3 mps 750 mmHg 14%
    15:00 +44°C° 0 mm 3 mps 749 mmHg 13%
    16:00 +44°C° 0 mm 3 mps 749 mmHg 13%
    17:00 +44°C° 0 mm 4 mps 749 mmHg 13%
    18:00 +43°C° 0 mm 4 mps 749 mmHg 13%
    19:00 +42°C° 0 mm 4 mps 749 mmHg 14%
    20:00 +41°C° 0 mm 4 mps 749 mmHg 16%
    21:00 +38°C° 0 mm 4 mps 750 mmHg 18%
    22:00 +37°C° 0 mm 3 mps 750 mmHg 19%
    23:00 +36°C° 0 mm 2 mps 750 mmHg 21%
    Show more